TimeEST,TemperatureF,Dew PointF,Humidity,Sea Level PressureIn,VisibilityMPH,Wind Direction,Wind SpeedMPH,Gust SpeedMPH,PrecipitationIn,Events,Conditions,WindDirDegrees,DateUTC
12:15 AM,27.3,18.0,68,30.09,10.0,Calm,Calm,-,N/A,,Clear,0,2013-03-05 05:15:00
12:35 AM,26.6,19.6,75,30.09,10.0,Calm,Calm,-,N/A,,Clear,0,2013-03-05 05:35:00
12:55 AM,28.0,18.9,68,30.09,10.0,Calm,Calm,-,N/A,,Clear,0,2013-03-05 05:55:00
1:15 AM,26.8,20.1,76,30.09,10.0,Calm,Calm,-,N/A,,Clear,0,2013-03-05 06:15:00
1:35 AM,26.8,20.1,76,30.09,10.0,Calm,Calm,-,N/A,,Clear,0,2013-03-05 06:35:00
1:55 AM,27.5,20.3,74,30.09,10.0,Calm,Calm,-,N/A,,Clear,0,2013-03-05 06:55:00
2:15 AM,26.8,20.7,78,30.10,10.0,Calm,Calm,-,N/A,,Clear,0,2013-03-05 07:15:00
2:35 AM,27.1,20.5,76,30.10,10.0,Calm,Calm,-,N/A,,Clear,0,2013-03-05 07:35:00
3:15 AM,26.6,21.2,80,30.09,10.0,Calm,Calm,-,N/A,,Clear,0,2013-03-05 08:15:00
3:55 AM,24.8,20.8,85,30.11,10.0,Calm,Calm,-,N/A,,Clear,0,2013-03-05 08:55:00
4:15 AM,25.0,20.8,84,30.11,10.0,Calm,Calm,-,N/A,,Clear,0,2013-03-05 09:15:00
4:35 AM,24.6,19.9,82,30.11,10.0,Calm,Calm,-,N/A,,Clear,0,2013-03-05 09:35:00
4:55 AM,24.4,20.1,84,30.10,10.0,Calm,Calm,-,N/A,,Clear,0,2013-03-05 09:55:00
5:15 AM,23.4,20.7,89,30.11,10.0,Calm,Calm,-,N/A,,Clear,0,2013-03-05 10:15:00
5:55 AM,24.4,20.3,84,30.11,10.0,Calm,Calm,-,N/A,,Scattered Clouds,0,2013-03-05 10:55:00
6:15 AM,24.1,20.1,85,30.11,10.0,Calm,Calm,-,N/A,,Clear,0,2013-03-05 11:15:00
6:35 AM,23.7,20.1,86,30.11,10.0,Calm,Calm,-,N/A,,Clear,0,2013-03-05 11:35:00
6:55 AM,24.6,20.3,84,30.11,10.0,Calm,Calm,-,N/A,,Clear,0,2013-03-05 11:55:00
7:15 AM,24.1,21.6,90,30.12,10.0,Calm,Calm,-,N/A,,Clear,0,2013-03-05 12:15:00
7:35 AM,27.7,23.2,83,30.13,10.0,Calm,Calm,-,N/A,,Clear,0,2013-03-05 12:35:00
8:15 AM,33.3,23.4,67,30.13,10.0,Calm,Calm,-,N/A,,Scattered Clouds,0,2013-03-05 13:15:00
8:35 AM,35.6,22.5,59,30.13,10.0,Calm,Calm,-,N/A,,Clear,0,2013-03-05 13:35:00
8:55 AM,39.6,19.9,45,30.13,10.0,Calm,Calm,-,N/A,,Scattered Clouds,0,2013-03-05 13:55:00
9:15 AM,39.6,18.0,42,30.13,10.0,Calm,Calm,-,N/A,,Mostly Cloudy,0,2013-03-05 14:15:00
9:35 AM,40.6,18.9,42,30.12,10.0,Calm,Calm,-,N/A,,Overcast,0,2013-03-05 14:35:00
9:55 AM,40.6,18.5,41,30.11,10.0,Calm,Calm,-,N/A,,Overcast,0,2013-03-05 14:55:00
10:15 AM,42.8,19.0,39,30.10,10.0,Calm,Calm,-,N/A,,Overcast,0,2013-03-05 15:15:00
10:35 AM,43.7,18.5,36,30.10,10.0,Calm,Calm,-,N/A,,Overcast,0,2013-03-05 15:35:00
10:55 AM,44.2,19.2,37,30.09,10.0,Calm,Calm,-,N/A,,Overcast,0,2013-03-05 15:55:00
11:15 AM,44.8,19.0,36,30.08,10.0,Calm,Calm,-,N/A,,Overcast,0,2013-03-05 16:15:00
11:35 AM,45.1,18.3,34,30.08,10.0,ESE,3.5,-,N/A,,Overcast,110,2013-03-05 16:35:00
11:55 AM,45.7,18.0,33,30.06,10.0,ENE,4.6,-,N/A,,Overcast,60,2013-03-05 16:55:00
12:15 PM,46.4,17.6,32,30.05,10.0,Calm,Calm,-,N/A,,Overcast,0,2013-03-05 17:15:00
12:35 PM,47.1,18.5,32,30.05,10.0,SE,4.6,-,N/A,,Overcast,140,2013-03-05 17:35:00
1:15 PM,47.8,20.8,34,30.03,10.0,ENE,5.8,-,N/A,,Overcast,60,2013-03-05 18:15:00
1:35 PM,48.7,20.8,33,30.01,10.0,ENE,8.1,-,N/A,,Overcast,60,2013-03-05 18:35:00
1:55 PM,49.3,20.3,32,30.01,10.0,East,3.5,-,N/A,,Overcast,90,2013-03-05 18:55:00
2:15 PM,50.2,20.3,31,30.00,10.0,East,9.2,-,N/A,,Overcast,80,2013-03-05 19:15:00
2:35 PM,49.8,19.9,31,29.99,10.0,East,4.6,-,N/A,,Overcast,80,2013-03-05 19:35:00
2:55 PM,51.1,19.9,29,29.98,10.0,SE,4.6,-,N/A,,Overcast,130,2013-03-05 19:55:00
3:15 PM,50.5,19.9,30,29.97,10.0,SE,5.8,-,N/A,,Mostly Cloudy,130,2013-03-05 20:15:00
3:35 PM,49.6,19.0,30,29.97,10.0,SE,6.9,-,N/A,,Mostly Cloudy,140,2013-03-05 20:35:00
3:55 PM,49.6,19.4,30,29.97,10.0,ESE,6.9,-,N/A,,Scattered Clouds,110,2013-03-05 20:55:00
4:15 PM,49.5,19.9,31,29.96,10.0,SE,8.1,-,N/A,,Mostly Cloudy,130,2013-03-05 21:15:00
4:35 PM,48.7,19.6,32,29.97,10.0,ESE,6.9,-,N/A,,Overcast,110,2013-03-05 21:35:00
4:55 PM,48.7,21.4,34,29.97,10.0,SE,8.1,-,N/A,,Overcast,140,2013-03-05 21:55:00
5:15 PM,47.7,21.4,35,29.97,10.0,SE,10.4,-,N/A,,Overcast,140,2013-03-05 22:15:00
5:35 PM,47.3,21.4,36,29.97,10.0,SE,8.1,-,N/A,,Overcast,140,2013-03-05 22:35:00
5:55 PM,47.3,20.8,35,29.96,10.0,ESE,8.1,-,N/A,,Overcast,120,2013-03-05 22:55:00
6:15 PM,46.6,21.0,36,29.95,10.0,ESE,5.8,-,N/A,,Overcast,120,2013-03-05 23:15:00
6:35 PM,45.7,24.1,43,29.95,10.0,East,10.4,-,N/A,,Overcast,90,2013-03-05 23:35:00
6:55 PM,43.7,24.4,47,29.95,10.0,East,10.4,-,N/A,,Overcast,100,2013-03-05 23:55:00
7:15 PM,43.2,25.0,49,29.95,10.0,East,8.1,-,N/A,,Overcast,100,2013-03-06 00:15:00
7:35 PM,43.2,26.6,52,29.95,10.0,ESE,9.2,-,N/A,,Overcast,120,2013-03-06 00:35:00
7:55 PM,43.0,27.7,55,29.95,10.0,ESE,5.8,-,N/A,,Overcast,120,2013-03-06 00:55:00
8:15 PM,41.7,31.1,66,29.94,10.0,SSE,12.7,-,N/A,,Drizzle,150,2013-03-06 01:15:00
8:35 PM,39.4,33.8,80,29.93,10.0,SE,10.4,-,N/A,Rain,Light Rain,130,2013-03-06 01:35:00
8:55 PM,38.3,34.9,87,29.92,7.0,SE,6.9,-,N/A,Rain,Light Rain,140,2013-03-06 01:55:00
9:15 PM,36.3,34.0,91,29.91,5.0,ESE,6.9,-,0.01,Rain,Rain,120,2013-03-06 02:15:00
9:35 PM,34.7,33.6,96,29.91,4.0,SE,4.6,-,0.02,,Overcast,140,2013-03-06 02:35:00
9:55 PM,34.7,33.8,97,29.90,3.0,East,8.1,-,0.04,,Overcast,90,2013-03-06 02:55:00
10:15 PM,33.8,33.1,97,29.89,2.5,Calm,Calm,-,N/A,Snow,Light Snow,0,2013-03-06 03:15:00
10:35 PM,33.6,33.1,98,29.88,1.8,East,5.8,-,N/A,Snow,Light Snow,80,2013-03-06 03:35:00
10:55 PM,33.4,33.1,99,29.87,1.8,ENE,4.6,-,N/A,Snow,Light Snow,60,2013-03-06 03:55:00
11:15 PM,33.3,32.9,99,29.86,1.0,ENE,6.9,-,N/A,Snow,Snow,60,2013-03-06 04:15:00
11:35 PM,33.1,32.9,99,29.84,1.0,ENE,6.9,-,N/A,Snow,Snow,60,2013-03-06 04:35:00
11:55 PM,33.3,33.1,99,29.82,1.5,ENE,9.2,-,N/A,Snow,Light Snow,60,2013-03-06 04:55:00